Location: Pompeys Pillar
(45.9913°N, 107.9528°W)
Time: 22:43:27
(UTC+00:00)

Courier 1B Rocket - All Passes

Search period start: 24 May 2022 00:00
Search period end: 03 June 2022 00:00
Orbit: 920 x 1202 km, 28.2° (Epoch: 23 May)

Date Brightness Start Highest point End Pass type
(mag) Time Alt. Az. Time Alt. Az. Time Alt. Az.
24 May - 08:53:12 10° SSW 08:56:13 14° S 08:59:12 10° SE visible
24 May - 10:45:24 10° SW 10:48:22 14° S 10:51:20 10° SSE visible
25 May - 07:53:06 10° SSW 07:55:35 12° S 07:58:01 10° SE visible
25 May - 09:44:28 10° SW 09:47:43 15° S 09:50:59 10° SSE visible
26 May - 06:53:49 10° S 06:54:56 10° SSE 06:56:02 10° SSE night (unlit)
26 May - 08:43:43 10° SSW 08:47:04 15° S 08:50:24 10° SE visible
26 May - 10:37:03 10° SSW 10:39:12 12° SSW 10:41:21 10° S visible
27 May - 07:43:09 10° SSW 07:46:25 14° S 07:49:37 10° SE visible
27 May - 09:35:36 10° SW 09:38:34 14° S 09:41:32 10° SSE visible
28 May - 06:42:49 10° SSW 06:45:44 13° S 06:48:36 10° SE night (unlit)
28 May - 08:34:30 10° SW 08:37:56 15° S 08:41:18 10° SSE visible
29 May - 05:42:59 10° S 05:45:03 11° SSE 05:47:06 10° SSE night (unlit)
29 May - 07:33:36 10° SW 07:37:15 15° S 07:40:50 10° SE night (unlit)
29 May - 09:27:09 10° SW 09:29:24 12° SSW 09:31:37 10° S visible
30 May - 06:32:53 10° SSW 06:36:34 15° S 06:40:08 10° SE night (unlit)
30 May - 08:25:32 10° SW 08:28:45 14° S 08:31:54 10° SSE visible
31 May - 05:32:22 10° SSW 05:35:50 14° S 05:39:13 10° SE visible
31 May - 07:24:19 10° SW 07:28:05 16° S 07:31:45 10° SSE night (unlit)
01 Jun - 04:32:15 10° S 04:35:06 13° SSE 04:37:54 10° SE visible
01 Jun - 06:23:18 10° SW 06:27:23 17° S 06:31:19 10° SE visible
01 Jun - 08:16:58 10° SW 08:19:33 12° SSW 08:22:06 10° S night (unlit)
02 Jun - 03:33:07 10° S 03:34:22 10° SSE 03:35:35 10° SSE visible
02 Jun - 05:22:28 10° SSW 05:26:38 16° S 05:30:39 10° SE visible
02 Jun - 07:15:17 10° SW 07:18:54 15° S 07:22:23 10° SSE night (unlit)
